Tracking 30922 objects as of 2-Jul-2025
HD Live streaming from Space Station
objects crossing your sky now

ARIANE 44LP DEB

Track ARIANE 44LP DEB now!


NORAD ID: 26794
Int'l Code: 1991-015L
Perigee: 601.2 km
Apogee: 28,250.3 km
Inclination: 7.5 °
Period: 497.5 minutes
Semi major axis: 20796 km
RCS: 0.5191 m2 (medium)
Launch date: March 2, 1991
Source: France (FR)
Launch site: FRENCH GUIANA (FRGUI)

Note: This is SATELLITE DEBRIS
Your satellite tracking list
STARLINK-31564
Track 1 satellite(s)




NASA's NSSDC Master Catalog

Two Line Element Set (TLE):
1 26794U 91015L   25181.24324814  .00000116  00000-0  16097-2 0  9992
2 26794   7.5221 196.6040 6647460 243.2861  75.6422  2.89474443117967
Source of the keplerian elements: AFSPC